ONEWEB-0276 (48994 NORAD) Tracking and Keplerian Element Data

This shows tracking and keplerian element data for the satellite.

Feedback or suggestion? Click here.




ElementValue
Catalog48994
NameONEWEB-0276
Epoch Orbit1387
Epoch Day269.25001157
Epoch Year2021
RAAN211.9072
Inclination87.9272
Eccentricity0.0010974
Argument of Perigee347.8084
Mean Anonmoly75.7844
Mean Motion13.37855375
Decay Rate1.4E-07
L11 48994U 21060AD 21269.25001157 .00000014 00000-0 00000+0 0 9998
L22 48994 87.9272 211.9072 0010974 347.8084 75.7844 13.37855375 13879

Live tracking and technical data element details for ONEWEB-0276 (NORAD 48994). ONEWEB-0276 can be tracked NOW for your location showing map with azimuth and elevation plus other details from your city location.

Track the satellite on the map from your city or location and see movement details for azimuth, elevation, latitude, longitude, range, height, and movement on the map or in text.







IsCatalogInMostPopularTable: catalog: 48994, numindb: 22
Update: records affected: 1



GetName: 48994 ONEWEB-0276

Hit Count: updated at: Sun, 26 Sep 2021 16:32:14 GMT